Regional Weather Roundup
Issued by NWS

Home | Current Version | Previous Version | Graphics & Text | Print | Product List | Glossary On
Versions: 1 2 3 4 5 6 7 8 9 10 11 12 13 14 15 16 17 18 19 20 21 22 23 24 25 26 27 28 29 30 31 32 33 34 35 36 37 38 39 40 41 42 43 44 45 46 47 48 49 50
000
ASUS43 KDMX 131508
RWRIA

WEATHER ROUNDUP FOR IOWA
NATIONAL WEATHER SERVICE DES MOINES IA
900 AM CST SAT FEB 13 2016

NOTE: "FAIR" INDICATES FEW OR NO CLOUDS BELOW 12,000 FEET WITH NO
SIGNIFICANT WEATHER AND/OR OBSTRUCTIONS TO VISIBILITY.

* - THESE STATIONS ARE NOT NWS STATIONS...THUS NOT UNDER NWS
QUALITY CONTROL.  THEY ALSO DO NOT REPORT WEATHER SUCH
AS PRECIPITATION OR FOG.

IAZ001>003-012>014-020>022-031>034-043>046-131600-
   NORTHWEST IOWA

CITY           SKY/WX    TMP DP  RH WIND       PRES   REMARKS
CARROLL *      CLOUDY     1  -4  78 SE7       30.60F WCI -11
CHEROKEE *     CLOUDY     3  -4  72 SE7       30.59S WCI  -9
DENISON *      CLOUDY     5  -2  72 SE8       30.56F WCI  -8
LE MARS *      CLOUDY     5  -2  72 SE8       30.59R WCI  -8
ORANGE CITY *  CLOUDY     3  -2  78 SE5       30.55R WCI  -6
SHELDON *      CLOUDY     0  -6  78 SE9       30.55R WCI -16
SIOUX CITY     CLOUDY     7  -2  66 SE14      30.57F WCI -10
SPENCER        CLOUDY    -1  -9  68 SE7       30.58F WCI -14
STORM LAKE *   PTSUNNY    1  -6  71 SE8       30.57S WCI -12
$$

IAZ055>058-069>071-079>083-090>094-131600-
   SOUTHWEST IOWA

CITY           SKY/WX    TMP DP  RH WIND       PRES   REMARKS
ATLANTIC *     CLOUDY     7  -2  66 E7        30.60F WCI  -5
AUDUBON *      PTSUNNY    5  -2  72 E6        30.59S WCI  -6
CLARINDA *     CLOUDY    12   1  62 SE6       30.63S WCI   3
COUNCIL BLFS * CLOUDY    10   3  72 E8        30.57F WCI  -1
CRESTON *      CLOUDY     7  -2  66 E9        30.60F WCI  -7
HARLAN  *      CLOUDY     7   0  72 SE9       30.62F WCI  -7
LAMONI         CLOUDY     8  -2  63 E6        30.61S WCI  -2
RED OAK *      CLOUDY    10   1  67 E8        30.61S WCI  -1
SHENANDOAH *   CLOUDY    12   3  67 E9        30.61S WCI   0
$$

IAZ047>049-059>061-072>074-084-131600-
   CENTRAL IOWA

CITY           SKY/WX    TMP DP  RH WIND       PRES   REMARKS
AMES           CLOUDY     1  -5  75 CALM      30.65S
ANKENY *       MOSUNNY    5  -6  61 CALM      30.67R
BOONE *        MOSUNNY    0  -8  71 CALM      30.61S
CHARITON *     PTSUNNY    5  -4  66 NE5       30.63F WCI  -4
DES MOINES     PTSUNNY    6  -3  66 CALM      30.65F
GRINNELL*      CLOUDY     3  -4  72 NE3       30.64S
KNOXVILLE *    CLOUDY     5  -6  61 CALM      30.65S
MARSHALLTOWN   CLOUDY     2  -7  66 NE5       30.64R WCI  -8
NEWTON *       MOSUNNY    3  -8  60 CALM      30.66R
PELLA *        CLOUDY     7  -4  61 CALM      30.68R
$$

IAZ004>006-015-016-023>025-035-036-131600-
   NORTH CENTRAL IOWA

CITY           SKY/WX    TMP DP  RH WIND       PRES   REMARKS
ALGONA *       SUNNY      0  -6  78 CALM      30.60R
CLARION *      SUNNY      0  -9  65 NE3       30.63R
ESTHERVILLE    CLOUDY    -2  -8  76 E3        30.59R
FORT DODGE *   CLOUDY     0  -6  78 CALM      30.63R
MASON CITY     CLOUDY    -3 -10  72 CALM      30.62R
FOREST CITY *  SUNNY     -2  -9  71 CALM      30.61R
WEBSTER CITY * SUNNY     -2  -8  78 CALM      30.61S
IOWA FALLS *     N/A      1  -6  71 E3        30.63S
$$

IAZ007>011-017>019-026>030-037>042-050>054-066-131600-
   NORTHEAST IOWA

CITY           SKY/WX    TMP DP  RH WIND       PRES   REMARKS
CEDAR RAPIDS   SUNNY      4  -6  63 VRB6      30.64R WCI  -7
CHARLES CITY * MOSUNNY   -2 -13  60 CALM      30.62F
CLINTON *      SUNNY      6  -7  54 N7        30.65R WCI  -6
DECORAH *      SUNNY     -4 -15  59 NW5       30.59S WCI -15
DUBUQUE        CLOUDY     2 -10  57 N9        30.61R WCI -13
MONTICELLO *   SUNNY      3  -9  55 N7        30.65R WCI  -9
OELWEIN *      SUNNY     -2 -13  60 NW5       30.64R WCI -12
WATERLOO       CLOUDY    -1  -9  68 CALM      30.66R
$$

IAZ064-065-067-068-078-131600-
   EAST CENTRAL IOWA

CITY           SKY/WX    TMP DP  RH WIND       PRES   REMARKS
DAVENPORT      SUNNY      6  -6  57 N7        30.65R WCI  -6
IOWA CITY      SUNNY      7  -7  52 N5        30.69R WCI  -2
MT. PLEASANT * CLOUDY    10  -2  56 N5        30.67R WCI   2
MUSCATINE *    SUNNY      9  -6  52 N6        30.69R WCI  -1
QUAD CITIES    SUNNY      8  -8  48 N6        30.66R WCI  -2
$$

IAZ062-063-075>077-085>089-095>099-131600-
   SOUTHEAST IOWA

CITY           SKY/WX    TMP DP  RH WIND       PRES   REMARKS
BURLINGTON     CLOUDY     8  -4  58 VRB5      30.66R WCI   0
FAIRFIELD *    PTSUNNY    5  -8  56 NE5       30.66S WCI  -4
FORT MADISON * SUNNY      7  -4  61 CALM      30.67R
KEOKUK *       SUNNY      9  -2  61 CALM      30.67R
OSKALOOSA *      N/A      5  -4  66 CALM      30.66S
CENTERVILLE *    N/A      7  -2  66 CALM      30.65F
OTTUMWA        CLOUDY     7  -4  60 CALM      30.66S
WASHINGTON *   SUNNY      7  -8  51 N7        30.67S WCI  -5
$$

ABBREVIATIONS USED IN REMARKS
   TC - TEMPERATURES IN CELSIUS
  WCI - WIND CHILL INDEX
   HX - HEAT INDEX
  VSB - VISIBILITY
$$




USA.gov is the U.S. government's official web portal to all federal, state and local government web resources and services.